sat.trackr.live / text

‹ back to catalog

STARLINK-31765

NORAD 59604 · 2024-080D

PAYLOAD ACTIVE UNKNOWN

§ Identity

Operator
Country
US
Launch date
2024-04-28
Launch site
AFETR
Launch vehicle
Mass (kg)
RCS (m²)

Purposes: comms

External: N2YO · Heavens-Above · Gunter

§ Orbital elements

Epoch: 2026-09-21T14:04:26.547168Z

Period
94.27 min
Inclination
43.0027°
Eccentricity
0.0001213
Mean motion
15.27578875 rev/d
Perigee alt
482.2 km
Apogee alt
483.9 km
Semi-major
6,861.2 km
B*
1.2857e-5
RAAN
8.0332°
Arg perigee
270.0491°
Mean anomaly
90.0222°
Rev number
13,453

§ Raw data

STARLINK-317651 59604U 24080D   26264.58641837  .00000092  00000+0  12857-4 0  99972 59604  43.0027   8.0332 0001213 270.0491  90.0222 15.27578875134534

JSON: /api/v1/satellites/59604 · /tle

For live sub-satellite position, see the globe view (requires WebGL).

§ Visibility from observer

Set your observer location to see the next 7 days of passes ≥ 10°. The values pass through the URL so the page stays shareable.

No JS? Fill the form by hand. The geolocation button needs JavaScript.